TimeMST,TemperatureF,Dew PointF,Humidity,Sea Level PressureIn,VisibilityMPH,Wind Direction,Wind SpeedMPH,Gust SpeedMPH,PrecipitationIn,Events,Conditions,WindDirDegrees,DateUTC
12:53 AM,30.0,30.0,100,30.08,0.2,WNW,3.5,-,N/A,Fog,Light Freezing Fog,300,2013-02-06 07:53:00
12:55 AM,30.2,30.2,100,30.03,1.0,West,5.8,-,N/A,,Mist,280,2013-02-06 07:55:00
1:06 AM,30.2,30.2,100,30.03,0.2,NNW,3.5,-,N/A,Fog,Light Freezing Fog,330,2013-02-06 08:06:00
1:53 AM,30.0,30.0,100,30.09,0.2,NNW,4.6,-,N/A,Fog,Light Freezing Fog,340,2013-02-06 08:53:00
2:30 AM,30.2,30.2,100,30.06,0.1,Calm,Calm,-,N/A,Fog,Light Freezing Fog,0,2013-02-06 09:30:00
2:53 AM,30.0,30.0,100,30.11,0.1,Calm,Calm,-,N/A,Fog,Light Freezing Fog,0,2013-02-06 09:53:00
2:56 AM,30.2,30.2,100,30.06,0.2,Calm,Calm,-,N/A,Fog,Light Freezing Fog,0,2013-02-06 09:56:00
3:53 AM,30.0,30.0,100,30.11,0.2,West,3.5,-,N/A,Fog,Light Freezing Fog,280,2013-02-06 10:53:00
4:53 AM,30.0,28.9,96,30.12,0.2,NW,4.6,-,N/A,Fog,Light Freezing Fog,320,2013-02-06 11:53:00
5:53 AM,30.0,30.0,100,30.14,0.2,NNW,5.8,-,N/A,Fog,Light Freezing Fog,330,2013-02-06 12:53:00
6:39 AM,30.2,30.2,100,30.09,0.5,Calm,Calm,-,N/A,Fog,Light Freezing Fog,0,2013-02-06 13:39:00
6:50 AM,30.2,30.2,100,30.10,0.2,WNW,5.8,-,N/A,Fog,Light Freezing Fog,300,2013-02-06 13:50:00
6:53 AM,30.0,28.9,96,30.16,0.2,NW,3.5,-,N/A,Fog,Light Freezing Fog,320,2013-02-06 13:53:00
7:53 AM,28.4,28.4,100,30.12,0.5,North,3.5,-,N/A,Fog,Light Freezing Fog,10,2013-02-06 14:53:00
7:57 AM,28.4,28.4,100,30.12,0.2,NNW,4.6,-,N/A,Fog,Light Freezing Fog,340,2013-02-06 14:57:00
8:14 AM,28.4,28.4,100,30.12,0.2,WNW,3.5,-,N/A,Fog,Light Freezing Fog,300,2013-02-06 15:14:00
8:53 AM,28.9,28.0,96,30.20,0.2,Calm,Calm,-,N/A,Fog,Light Freezing Fog,0,2013-02-06 15:53:00
9:53 AM,28.9,28.0,96,30.22,0.2,Calm,Calm,-,N/A,Fog,Light Freezing Fog,0,2013-02-06 16:53:00
10:53 AM,28.9,28.9,100,30.22,0.2,Calm,Calm,-,N/A,Fog,Light Freezing Fog,0,2013-02-06 17:53:00
11:42 AM,30.2,30.2,100,30.17,0.5,Calm,Calm,-,N/A,Fog,Light Freezing Fog,0,2013-02-06 18:42:00
11:53 AM,30.9,30.9,100,30.23,0.5,Calm,Calm,-,N/A,Fog,Light Freezing Fog,0,2013-02-06 18:53:00
12:24 PM,30.2,30.2,100,30.17,1.0,Calm,Calm,-,N/A,,Overcast,0,2013-02-06 19:24:00
12:46 PM,32.0,30.2,93,30.16,3.0,NNE,3.5,-,N/A,,Mostly Cloudy,20,2013-02-06 19:46:00
12:53 PM,32.0,30.9,96,30.22,4.0,Calm,Calm,-,N/A,,Scattered Clouds,0,2013-02-06 19:53:00
1:53 PM,37.0,30.9,79,30.19,9.0,Calm,Calm,-,N/A,,Clear,0,2013-02-06 20:53:00
2:53 PM,42.1,28.0,58,30.17,10.0,North,8.1,-,N/A,,Clear,10,2013-02-06 21:53:00
3:53 PM,44.1,27.0,51,30.16,10.0,North,5.8,-,N/A,,Clear,10,2013-02-06 22:53:00
4:53 PM,43.0,25.0,49,30.16,10.0,North,4.6,-,N/A,,Clear,360,2013-02-06 23:53:00
5:53 PM,42.1,24.1,49,30.16,10.0,Calm,Calm,-,N/A,,Clear,0,2013-02-07 00:53:00
6:53 PM,36.0,28.9,76,30.17,10.0,Calm,Calm,-,N/A,,Clear,0,2013-02-07 01:53:00
7:53 PM,33.1,25.0,72,30.16,10.0,SE,3.5,-,N/A,,Clear,130,2013-02-07 02:53:00
8:53 PM,34.0,25.0,70,30.14,10.0,SE,11.5,-,N/A,,Clear,140,2013-02-07 03:53:00
9:53 PM,33.1,25.0,72,30.14,10.0,SE,8.1,-,N/A,,Clear,140,2013-02-07 04:53:00
10:53 PM,37.0,25.0,62,30.11,10.0,ESE,10.4,-,N/A,,Clear,120,2013-02-07 05:53:00
11:53 PM,37.0,25.0,62,30.09,10.0,SE,10.4,-,N/A,,Clear,130,2013-02-07 06:53:00